Starlink 32401

operational
NORAD ID: 61865 Int'l Des: 2024-202 Owner: SPXS Country: US Constellation: starlink
LEOCIRCULAR

关于 Starlink 32401

正在加载描述...

实时位置

正在加载3D地球...

即将过境

高度历史

Altitude vs Time

uPlot chart will show altitude changes over time

两行轨道根数

1 61865U 24202W 25306.12131059 .00003718 00000-0 14454-3 0 9994
2 61865 42.9982 238.7763 0000580 247.9627 112.1163 15.27579854 55826
Epoch: Nov 2, 2025 • Age: 48 hours

当前状态

高度 486.1 km
速度 7.63 km/s
星下点 41.44°N, 102.98°W
发射日期 Nov 7, 2024
运行时间 0.9 years
类型 internet

技术详情

分类 Payload
质量 730.00 kg
干质量 700.00 kg
总质量 730.00 kg
长度 0.30 m
直径 4.10 m
跨度 29.00 m
形状 Box + pan
制造商 SPXS
平台类型 Starlink V2M
阶段状态 In Orbit
所有者/国家 SPXS/US

大型星座

Loading constellations...